Orange, MA

8:38 AM EDT on September 18, 2019 (GMT -0400)
Orange Municipal

Weather History for KORE - August, 2019

Change the Weather History Date:

Wednesday, August 21, 2019

  Actual Average Record
Temperature  
Mean Temperature 72 °F -  
Max Temperature 82 °F 78 °F 87 °F (2005)
Min Temperature 62 °F 54 °F 46 °F (2007)
Cooling Degree Days 7    
Growing Degree Days 22 (Base 50)    
Moisture  
Dew Point 66 °F    
Average Humidity 85    
Maximum Humidity 94    
Minimum Humidity 74    
Precipitation  
Precipitation 0.18 in - - ()
Sea Level Pressure  
Sea Level Pressure 29.95 in    
Wind  
Wind Speed 3 mph ()    
Max Wind Speed 12 mph    
Max Gust Speed 18 mph    
Visibility 9.5 miles    
Events Rain , Thunderstorm    
Averages and records for this station are not official NWS values.
T = Trace of Precipitation, MM = Missing Value Source: Averaged Metar Reports

Daily Weather History Graph

Daily Weather History Graph

Search for Another Location

Airport or City:

Astronomy

Aug. 21, 2019 Rise Set
Actual Time 6:02 AM EDT 7:41 PM EDT
Civil Twilight 5:32 AM EDT 8:11 PM EDT
Nautical Twilight 4:55 AM EDT 8:47 PM EDT
Astronomical Twilight 4:17 AM EDT 9:26 PM EDT
Moon 10:50 PM EDT (8/21) 11:42 AM EDT (8/21)
Length of Visible Light 14h 39m
Length of Day
13h 39m
Waning Gibbous, 69% of the Moon is Illuminated
Aug 21
Waning Gibbous
Aug 23
Last Quarter
Aug 30
New
Sep 5
First Quarter
Sep 14
Full

Hourly Weather History & Observations

Time (EDT) Temp. Heat Index Dew Point Humidity Pressure Visibility Wind Dir Wind Speed Gust Speed Precip Events Conditions
12:52 AM 63.0 °F - 60.1 °F 90% 30.06 in 10.0 mi Calm Calm - N/A   Clear
1:52 AM 63.0 °F - 60.1 °F 90% 30.06 in 10.0 mi Calm Calm - N/A   Clear
3:52 AM 62.1 °F - 59.0 °F 90% 30.03 in 10.0 mi Calm Calm - N/A   Clear
4:52 AM 62.1 °F - 59.0 °F 90% 30.02 in 10.0 mi Calm Calm - N/A   Partly Cloudy
5:52 AM 62.1 °F - 59.0 °F 90% 30.02 in 10.0 mi Calm Calm - N/A   Scattered Clouds
6:38 AM 62.1 °F - 59.0 °F 90% 30.04 in 10.0 mi Calm Calm - N/A Thunderstorm Thunderstorm
6:52 AM 63.0 °F - 60.1 °F 90% 30.03 in 10.0 mi Calm Calm - 0.00 in Rain , Thunderstorm Light Thunderstorms and Rain
7:14 AM 63.0 °F - 61.0 °F 93% 30.03 in 4.0 mi Calm Calm - 0.06 in Rain Rain
7:52 AM 64.0 °F - 62.1 °F 93% 30.04 in 9.0 mi NNE 5.8 mph - 0.13 in Rain Light Rain
8:30 AM 66.0 °F - 64.0 °F 93% 30.02 in 10.0 mi Calm Calm - 0.00 in Thunderstorm Overcast
8:40 AM 66.0 °F - 64.0 °F 93% 30.03 in 7.0 mi NNW 6.9 mph - 0.01 in Rain , Thunderstorm Light Rain
8:49 AM 66.2 °F - 64.4 °F 94% 30.02 in 8.0 mi NNE 4.6 mph - 0.01 in Rain , Thunderstorm Light Rain
8:52 AM 66.0 °F - 64.0 °F 93% 30.02 in 10.0 mi NNE 3.5 mph - 0.01 in Thunderstorm Overcast
9:02 AM 66.9 °F - 64.9 °F 93% 30.02 in 10.0 mi SE 4.6 mph - N/A   Overcast
9:52 AM 69.1 °F - 64.9 °F 87% 30.01 in 10.0 mi NNW 4.6 mph - 0.00 in   Overcast
10:41 AM 72.0 °F - 66.9 °F 84% 29.98 in 10.0 mi Calm Calm - N/A   Overcast
10:52 AM 73.0 °F - 68.0 °F 84% 29.98 in 10.0 mi Calm Calm - N/A   Overcast
11:52 AM 77.0 °F - 70.0 °F 79% 29.96 in 10.0 mi SSW 6.9 mph - N/A   Mostly Cloudy
12:00 PM 77.0 °F - 70.0 °F 79% 29.96 in 10.0 mi Variable 5.8 mph - N/A   Mostly Cloudy
12:23 PM 77.0 °F - 69.1 °F 76% 29.95 in 10.0 mi SSW 10.4 mph - N/A   Mostly Cloudy
12:52 PM 77.0 °F - 70.0 °F 79% 29.95 in 10.0 mi SW 4.6 mph - N/A   Overcast
1:28 PM 78.1 °F - 71.1 °F 79% 29.93 in 10.0 mi South 5.8 mph - N/A   Scattered Clouds
1:52 PM 79.0 °F - 71.1 °F 77% 29.91 in 10.0 mi Calm Calm - 0.00 in Rain Light Rain
2:52 PM 82.0 °F 87.4 °F 73.0 °F 74% 29.88 in 10.0 mi South 10.4 mph - 0.00 in   Partly Cloudy
3:30 PM 80.1 °F 83.8 °F 72.0 °F 76% 29.88 in 10.0 mi South 11.5 mph - N/A   Overcast
3:52 PM 81.0 °F 85.2 °F 72.0 °F 74% 29.87 in 10.0 mi South 11.5 mph 18.4 mph N/A   Overcast
4:52 PM 79.0 °F - 71.1 °F 77% 29.87 in 10.0 mi South 9.2 mph - N/A   Overcast
5:16 PM 79.0 °F - 72.0 °F 79% 29.86 in 10.0 mi South 10.4 mph - N/A   Mostly Cloudy
5:52 PM 78.1 °F - 69.1 °F 74% 29.85 in 10.0 mi South 11.5 mph 17.3 mph N/A   Clear
6:52 PM 77.0 °F - 71.1 °F 82% 29.85 in 10.0 mi South 6.9 mph - N/A   Mostly Cloudy
7:52 PM 75.9 °F - 71.1 °F 85% 29.83 in 8.0 mi South 9.2 mph - 0.01 in Rain , Thunderstorm Light Rain
8:08 PM 75.0 °F - 71.1 °F 87% 29.84 in 7.0 mi SSW 9.2 mph - 0.03 in Rain Light Rain
8:52 PM 73.0 °F - 69.1 °F 87% 29.86 in 10.0 mi SSW 9.2 mph - 0.03 in Rain Light Rain
9:52 PM 71.1 °F - 66.9 °F 87% 29.87 in 10.0 mi Calm Calm - 0.00 in   Clear
10:52 PM 69.1 °F - 66.0 °F 90% 29.88 in 10.0 mi South 4.6 mph - N/A   Clear
11:52 PM 68.0 °F - 66.0 °F 93% 29.88 in 10.0 mi SSW 3.5 mph - N/A   Clear